Austin, MN

12:59 PM CDT on June 26, 2017 (GMT -0500)
Austin Municipal

Weather History for KAUM - September, 2012

Change the Weather History Date:

Saturday, September 29, 2012

  Actual Average Record
Temperature  
Mean Temperature 62 °F -  
Max Temperature 82 °F 65 °F 82 °F (2012)
Min Temperature 42 °F 42 °F 33 °F (2003)
Degree Days  
Heating Degree Days 3    
Growing Degree Days 12 (Base 50)    
Moisture  
Dew Point 37 °F    
Average Humidity 46    
Maximum Humidity 76    
Minimum Humidity 17    
Precipitation  
Precipitation 0.00 in - - ()
Sea Level Pressure  
Sea Level Pressure 30.08 in    
Wind  
Wind Speed 3 mph (NNW)    
Max Wind Speed 17 mph    
Max Gust Speed 22 mph    
Visibility 10 miles    
Events      
Averages and records for this station are not official NWS values.
T = Trace of Precipitation, MM = Missing Value Source: NWS Daily Summary

Daily Weather History Graph

Daily Weather History Graph

Search for Another Location

Airport or City:

Trip Planner

Search our weather history database for the weather conditions in past years. The results will help you decide how hot, cold, wet, or windy it might be!

Date:

Astronomy

Sep. 29, 2012 Rise Set
Actual Time 7:07 AM CDT 6:55 PM CDT
Civil Twilight 6:38 AM CDT 7:23 PM CDT
Nautical Twilight 6:05 AM CDT 7:57 PM CDT
Astronomical Twilight 5:31 AM CDT 8:30 PM CDT
Moon 6:26 PM CDT (9/29) 6:39 AM CDT (9/29)
Length of Visible Light 12h 44m
Length of Day
11h 47m
Full, 100% of the Moon is Illuminated
Sep 29
Full
Sep 29
Full
Oct 8
Last Quarter
Oct 15
New
Oct 21
First Quarter

Hourly Weather History & Observations

Time (CDT) Temp. Dew Point Humidity Pressure Visibility Wind Dir Wind Speed Gust Speed Precip Events Conditions
12:15 AM 50.0 °F 37.4 °F 62% 30.14 in 10.0 mi Calm Calm - N/A   Clear
12:35 AM 48.2 °F 37.4 °F 66% 30.14 in 10.0 mi Calm Calm - N/A   Clear
12:55 AM 48.2 °F 37.4 °F 66% 30.13 in 10.0 mi Calm Calm - N/A   Clear
1:14 AM 48.2 °F 37.4 °F 66% 30.13 in 10.0 mi Calm Calm - N/A   Clear
1:35 AM 48.2 °F 35.6 °F 62% 30.13 in 10.0 mi Calm Calm - N/A   Clear
1:55 AM 46.4 °F 37.4 °F 71% 30.13 in 10.0 mi Calm Calm - N/A   Clear
2:14 AM 46.4 °F 37.4 °F 71% 30.13 in 10.0 mi Calm Calm - N/A   Clear
2:35 AM 46.4 °F 35.6 °F 66% 30.13 in 10.0 mi Calm Calm - N/A   Clear
2:55 AM 46.4 °F 35.6 °F 66% 30.13 in 10.0 mi Calm Calm - N/A   Clear
3:14 AM 46.4 °F 35.6 °F 66% 30.13 in 10.0 mi Calm Calm - N/A   Clear
3:35 AM 46.4 °F 37.4 °F 71% 30.13 in 10.0 mi Calm Calm - N/A   Clear
3:55 AM 46.4 °F 37.4 °F 71% 30.13 in 10.0 mi Calm Calm - N/A   Clear
4:14 AM 44.6 °F 35.6 °F 71% 30.12 in 10.0 mi Calm Calm - N/A   Clear
4:35 AM 44.6 °F 35.6 °F 71% 30.12 in 10.0 mi Calm Calm - N/A   Clear
4:55 AM 44.6 °F 35.6 °F 71% 30.12 in 10.0 mi Calm Calm - N/A   Clear
5:15 AM 44.6 °F 37.4 °F 76% 30.12 in 10.0 mi Calm Calm - N/A   Clear
5:35 AM 42.8 °F 35.6 °F 76% 30.13 in 10.0 mi Calm Calm - N/A   Clear
5:54 AM 42.8 °F 35.6 °F 76% 30.13 in 10.0 mi Calm Calm - N/A   Clear
6:15 AM 44.6 °F 35.6 °F 71% 30.13 in 10.0 mi Calm Calm - N/A   Clear
6:35 AM 42.8 °F 35.6 °F 76% 30.13 in 10.0 mi Calm Calm - N/A   Clear
6:54 AM 42.8 °F 35.6 °F 76% 30.13 in 10.0 mi Calm Calm - N/A   Clear
7:15 AM 42.8 °F 35.6 °F 76% 30.13 in 10.0 mi Calm Calm - N/A   Clear
7:35 AM 42.8 °F 35.6 °F 76% 30.13 in 10.0 mi Calm Calm - N/A   Clear
7:55 AM 44.6 °F 37.4 °F 76% 30.14 in 10.0 mi Calm Calm - N/A   Clear
8:15 AM 46.4 °F 39.2 °F 76% 30.14 in 10.0 mi Calm Calm - N/A   Clear
8:35 AM 50.0 °F 39.2 °F 66% 30.14 in 10.0 mi Calm Calm - N/A   Clear
8:54 AM 53.6 °F 41.0 °F 62% 30.14 in 10.0 mi Calm Calm - N/A   Clear
9:15 AM 59.0 °F 39.2 °F 48% 30.14 in 10.0 mi WNW 4.6 mph - N/A   Clear
9:35 AM 62.6 °F 37.4 °F 39% 30.14 in 10.0 mi NW 5.8 mph - N/A   Clear
9:54 AM 66.2 °F 35.6 °F 32% 30.13 in 10.0 mi NW 8.1 mph - N/A   Clear
10:15 AM 69.8 °F 33.8 °F 27% 30.13 in 10.0 mi NNW 6.9 mph - N/A   Clear
10:34 AM 71.6 °F 33.8 °F 25% 30.12 in 10.0 mi NW 9.2 mph - N/A   Clear
10:55 AM 73.4 °F 33.8 °F 23% 30.12 in 10.0 mi NW 12.7 mph 16.1 mph N/A   Clear
11:15 AM 75.2 °F 33.8 °F 22% 30.12 in 10.0 mi NW 10.4 mph - N/A   Clear
11:35 AM 77.0 °F 33.8 °F 21% 30.11 in 10.0 mi NW 15.0 mph 19.6 mph N/A   Clear
11:55 AM 78.8 °F 33.8 °F 20% 30.11 in 10.0 mi NW 11.5 mph - N/A   Clear
12:14 PM 78.8 °F 33.8 °F 20% 30.10 in 10.0 mi NNW 12.7 mph - N/A   Unknown
12:35 PM 78.8 °F 33.8 °F 20% 30.10 in 10.0 mi NW 13.8 mph 20.7 mph N/A   Clear
12:55 PM 80.6 °F 33.8 °F 18% 30.09 in 10.0 mi NW 15.0 mph - N/A   Clear
1:14 PM 80.6 °F 33.8 °F 18% 30.09 in 10.0 mi NNW 12.7 mph - N/A   Clear
1:35 PM 80.6 °F 33.8 °F 18% 30.07 in 10.0 mi NW 13.8 mph 19.6 mph N/A   Clear
1:55 PM 80.6 °F 33.8 °F 18% 30.06 in 10.0 mi NW 13.8 mph 18.4 mph N/A   Clear
2:14 PM 82.4 °F 33.8 °F 17% 30.06 in 10.0 mi NW 11.5 mph 16.1 mph N/A   Clear
2:35 PM 82.4 °F 35.6 °F 19% 30.05 in 10.0 mi NW 13.8 mph 19.6 mph N/A   Clear
2:55 PM 82.4 °F 35.6 °F 19% 30.05 in 10.0 mi WNW 13.8 mph - N/A   Clear
3:14 PM 82.4 °F 35.6 °F 19% 30.04 in 10.0 mi NNW 6.9 mph 10.4 mph N/A   Clear
3:35 PM 82.4 °F 35.6 °F 19% 30.04 in 10.0 mi NW 17.3 mph 21.9 mph N/A   Clear
3:55 PM 82.4 °F 35.6 °F 19% 30.03 in 10.0 mi NNW 13.8 mph 17.3 mph N/A   Clear
4:14 PM 82.4 °F 35.6 °F 19% 30.02 in 10.0 mi North 10.4 mph 17.3 mph N/A   Clear
4:35 PM 80.6 °F 37.4 °F 21% 30.02 in 10.0 mi NNW 15.0 mph 19.6 mph N/A   Clear
4:55 PM 80.6 °F 37.4 °F 21% 30.02 in 10.0 mi North 8.1 mph 17.3 mph N/A   Clear
5:14 PM 80.6 °F 37.4 °F 21% 30.01 in 10.0 mi NNW 10.4 mph 16.1 mph N/A   Clear
5:35 PM 80.6 °F 37.4 °F 21% 30.01 in 10.0 mi NNW 10.4 mph 17.3 mph N/A   Clear
5:55 PM 78.8 °F 37.4 °F 23% 30.01 in 10.0 mi NNW 9.2 mph - N/A   Clear
6:14 PM 78.8 °F 37.4 °F 23% 30.01 in 10.0 mi NNW 6.9 mph - N/A   Clear
6:35 PM 75.2 °F 37.4 °F 25% 30.01 in 10.0 mi North 4.6 mph - N/A   Clear
6:55 PM 73.4 °F 37.4 °F 27% 30.01 in 10.0 mi North 3.5 mph - N/A   Clear
7:14 PM 71.6 °F 37.4 °F 29% 30.02 in 10.0 mi Calm Calm - N/A   Clear
7:35 PM 68.0 °F 39.2 °F 35% 30.02 in 10.0 mi Calm Calm - N/A   Clear
7:55 PM 66.2 °F 41.0 °F 40% 30.03 in 10.0 mi Calm Calm - N/A   Clear
8:14 PM 66.2 °F 39.2 °F 37% 30.03 in 10.0 mi Calm Calm - N/A   Clear
8:35 PM 64.4 °F 41.0 °F 42% 30.03 in 10.0 mi NNE 3.5 mph - N/A   Clear
8:55 PM 62.6 °F 42.8 °F 48% 30.03 in 10.0 mi NNE 3.5 mph - N/A   Clear
9:14 PM 62.6 °F 41.0 °F 45% 30.03 in 10.0 mi NE 5.8 mph - N/A   Clear
9:35 PM 57.2 °F 41.0 °F 55% 30.03 in 10.0 mi Calm Calm - N/A   Clear
9:55 PM 60.8 °F 42.8 °F 52% 30.04 in 10.0 mi Calm Calm - N/A   Clear
10:14 PM 57.2 °F 42.8 °F 59% 30.04 in 10.0 mi Calm Calm - N/A   Clear
10:35 PM 55.4 °F 41.0 °F 58% 30.04 in 10.0 mi Calm Calm - N/A   Clear
10:55 PM 55.4 °F 42.8 °F 63% 30.04 in 10.0 mi Calm Calm - N/A   Clear
11:14 PM 55.4 °F 42.8 °F 63% 30.03 in 10.0 mi Calm Calm - N/A   Clear
11:35 PM 53.6 °F 42.8 °F 67% 30.03 in 10.0 mi Calm Calm - N/A   Clear
11:55 PM 55.4 °F 44.6 °F 67% 30.03 in 10.0 mi Calm Calm - N/A   Clear